ARIANE 5 DEB (SYLDA), 54744

Orbit data source: Space-Track

ARIANE 5 DEB (SYLDA), 54744 is space debris in HEO originally from a launch on Tue, 13 Dec 2022 UTC launched from the French Guiana (FRGUI). Debris objects in space refer to the collection of defunct objects orbiting the Earth. Examples of debris include non-operational satellites, rocket bodies, and fragments generated from explosions, collisions, or faulty payload assembly.

Loading next visibility...
Identifier
54744, 2022-170D
Orbit
HEO
Country
Flag of FRFR
Related business
Manufacturer
ADS/Bremen
Mission
Spacecraft
Bus & Motor
SYLDA 5, Unknown motor
Mass
440 kg wet, 440 kg dry
Launch date (UTC)
2022-12-13 (3 years ago)
Launch vehicle
Unknown
Launch site
French Guiana (FRGUI)
Object type
Payload
Rocket body
Debris
Shape & HBR
Cyl, 2.8 m
Radar Cross Section
27.391 m², Large (>1 m²)

Expand to show TLE details & history
Last TLE update: 23 hours ago

TLE from 23 hours ago
0 ARIANE 5 DEB (SYLDA)
1 54744U 22170D   25257.23259071  .00059630  00000-0  47847-2 0  9991
2 54744   6.2261 193.7932 5830685 209.6284  98.3261  4.34072640 36102
Epoch: 2025-09-14T05:34Z
TLE epoch observation values (Epoch: 2025-09-14T05:34:55.837Z)
Latitude
0.00001°
Longitude
116.60533°
Altitude
14,874.116 km
Speed
3.522 km/s
True Right ascension
12h 55m 10s
True Declination
0° 00' 00"
Sunlit
Object was in daylight at epoch
Visualization orbit readout
Latitude
Unknown
Longitude
Unknown
Altitude
Unknown
Speed
Unknown
Apparent Right ascension
Unknown
Apparent Declination
Unknown
Sunlit
N/A
Visualization observer readout
Local Sidereal Time
21:29:01
Azimuth
Unknown
Elevation
Unknown
Doppler factor
Unknown
Orbital elements
Apogee altitude
18,759.972 km
Perigee altitude
242.467 km
Semi-major axis
15,879.356 km
Eccentricity
0.58307
Inclination
6.2261°
RAAN
193.7932°
Arg. of periapsis
209.6284°
True anomaly
150.39981°
Mean anomaly
98.3261°
Eccentric anomaly
125.51759°
Mean motion
1.08466 °/min
Orbital period
331.9 mins
BSTAR
0.0047847
Loading maneuver chart data...
Computing Atmospheric mass density...
Loading historical data...
Loading historical data...
Loading historical data...
Loading historical data...
Loading historical data...
Loading historical data...
Loading historical data...
Other satellites on launch #170 in the year 2022 (2022-12-13 UTC)

Documentation

Showing up to 5 results
|